Rush City, MN

10:49 PM CST on February 08, 2016 (GMT -0600)
Rush City Regional

Weather History for KROS - February, 2014

Change the Weather History Date:

Monday, February 3, 2014

  Actual Average (KCBG) Record (KCBG)
Temperature  
Mean Temperature 2 °F -  
Max Temperature 14 °F 18 °F 51 °F (2005)
Min Temperature -10 °F 0 °F -29 °F (1989)
Degree Days  
Heating Degree Days 63    
Moisture  
Dew Point -4 °F    
Average Humidity 76    
Maximum Humidity 87    
Minimum Humidity 57    
Precipitation  
Precipitation 0.00 in - - ()
Sea Level Pressure  
Sea Level Pressure 30.22 in    
Wind  
Wind Speed 2 mph (SSW)    
Max Wind Speed 5 mph    
Max Gust Speed -    
Visibility 10 miles    
Events      
Averages and records for this station are not official NWS values.
T = Trace of Precipitation, MM = Missing Value Source: NWS Daily Summary

Daily Weather History Graph

Daily Weather History Graph

Search for Another Location

Airport or City:

Trip Planner

Search our weather history database for the weather conditions in past years. The results will help you decide how hot, cold, wet, or windy it might be!

Date:

Astronomy

Feb. 03, 2014 Rise Set
Actual Time 7:30 AM CST 5:21 PM CST
Civil Twilight 6:59 AM CST 5:52 PM CST
Nautical Twilight 6:23 AM CST 6:28 PM CST
Astronomical Twilight 5:49 AM CST 7:02 PM CST
Moon 9:17 AM CST (2/3) 10:29 PM CST (2/3)
Length of Visible Light 10h 53m
Length of Day
9h 50m
Waxing Crescent, 20% of the Moon is Illuminated
Feb 3
Waxing Crescent
Feb 6
First Quarter
Feb 14
Full
Feb 22
Last Quarter
Mar 1
New

Hourly Weather History & Observations

Time (CST) Temp. Windchill Dew Point Humidity Pressure Visibility Wind Dir Wind Speed Gust Speed Precip Events Conditions
12:15 AM -3.5 °F -13.9 °F -6.9 °F 85% 30.18 in 10.0 mi SSE 4.6 mph - N/A   Scattered Clouds
12:35 AM -3.1 °F -11.4 °F -6.5 °F 85% 30.18 in 10.0 mi SSE 3.5 mph - N/A   Mostly Cloudy
12:55 AM -3.5 °F -13.9 °F -6.7 °F 86% 30.17 in 10.0 mi SSE 4.6 mph - N/A   Mostly Cloudy
1:14 AM -4.2 °F - -7.8 °F 84% 30.17 in 10.0 mi Calm Calm - N/A   Mostly Cloudy
1:35 AM -5.6 °F -14.3 °F -9.2 °F 84% 30.17 in 10.0 mi SSE 3.5 mph - N/A   Mostly Cloudy
1:55 AM -4.9 °F -13.4 °F -8.5 °F 84% 30.17 in 10.0 mi SSE 3.5 mph - N/A   Mostly Cloudy
2:14 AM -3.8 °F -12.2 °F -7.2 °F 85% 30.17 in 10.0 mi South 3.5 mph - N/A   Mostly Cloudy
2:35 AM -3.6 °F -14.1 °F -7.1 °F 85% 30.18 in 10.0 mi SSE 4.6 mph - N/A   Mostly Cloudy
2:55 AM -3.6 °F -12.0 °F -7.4 °F 84% 30.18 in 10.0 mi SSE 3.5 mph - N/A   Mostly Cloudy
3:14 AM -4.0 °F -12.4 °F -7.6 °F 85% 30.17 in 10.0 mi SSE 3.5 mph - N/A   Mostly Cloudy
3:35 AM -3.5 °F - -7.1 °F 85% 30.16 in 10.0 mi Calm Calm - N/A   Scattered Clouds
3:55 AM -4.9 °F - -8.7 °F 84% 30.16 in 10.0 mi Calm Calm - N/A   Scattered Clouds
4:15 AM -4.9 °F - -8.5 °F 84% 30.16 in 10.0 mi Calm Calm - N/A   Scattered Clouds
4:35 AM -4.9 °F - -8.7 °F 84% 30.16 in 10.0 mi Calm Calm - N/A   Scattered Clouds
4:55 AM -4.9 °F - -8.7 °F 84% 30.15 in 10.0 mi Calm Calm - N/A   Scattered Clouds
5:15 AM -6.2 °F - -10.5 °F 82% 30.16 in 10.0 mi Calm Calm - N/A   Mostly Cloudy
5:35 AM -6.7 °F - -10.8 °F 82% 30.16 in 10.0 mi Calm Calm - N/A   Scattered Clouds
5:55 AM -6.3 °F - -10.3 °F 83% 30.16 in 10.0 mi Calm Calm - N/A   Mostly Cloudy
6:15 AM -5.8 °F - -9.8 °F 83% 30.16 in 10.0 mi Calm Calm - N/A   Scattered Clouds
6:35 AM -7.2 °F - -11.7 °F 81% 30.16 in 10.0 mi Calm Calm - N/A   Scattered Clouds
6:55 AM -9.6 °F - -14.1 °F 81% 30.17 in 10.0 mi Calm Calm - N/A   Scattered Clouds
7:15 AM -10.3 °F - -14.6 °F 81% 30.17 in 10.0 mi Calm Calm - N/A   Clear
7:35 AM -9.4 °F - -13.7 °F 81% 30.17 in 10.0 mi Calm Calm - N/A   Clear
7:55 AM -10.1 °F - -15.0 °F 79% 30.17 in 10.0 mi Calm Calm - N/A   Clear
8:15 AM -8.3 °F - -12.3 °F 83% 30.18 in 10.0 mi Calm Calm - N/A   Clear
8:35 AM -5.4 °F - -9.4 °F 83% 30.18 in 10.0 mi Calm Calm - N/A   Clear
8:55 AM -1.8 °F - -5.6 °F 84% 30.18 in 10.0 mi Calm Calm - N/A   Clear
9:15 AM -0.0 °F - -3.8 °F 84% 30.20 in 10.0 mi Calm Calm - N/A   Clear
9:35 AM 1.0 °F - -2.4 °F 86% 30.21 in 10.0 mi Calm Calm - N/A   Clear
9:55 AM 2.8 °F - -0.6 °F 86% 30.20 in 10.0 mi Calm Calm - N/A   Clear
10:15 AM 3.9 °F - 0.7 °F 86% 30.21 in 10.0 mi Calm Calm - N/A   Clear
10:35 AM 4.8 °F - 1.8 °F 87% 30.22 in 10.0 mi Calm Calm - N/A   Clear
10:55 AM 5.7 °F - 2.5 °F 86% 30.22 in 10.0 mi Calm Calm - N/A   Clear
11:15 AM 6.3 °F - 2.8 °F 86% 30.21 in 10.0 mi Calm Calm - N/A   Clear
11:35 AM 7.5 °F - 3.4 °F 83% 30.21 in 10.0 mi Calm Calm - N/A   Clear
11:54 AM 6.6 °F - 1.6 °F 80% 30.21 in 10.0 mi Calm Calm - N/A   Clear
12:15 PM 8.4 °F - 1.8 °F 74% 30.21 in 10.0 mi Calm Calm - N/A   Clear
12:34 PM 9.3 °F - 1.4 °F 70% 30.21 in 10.0 mi Calm Calm - N/A   Clear
12:55 PM 11.1 °F - 1.4 °F 65% 30.21 in 10.0 mi Calm Calm - N/A   Clear
1:15 PM 11.3 °F - 1.6 °F 65% 30.20 in 10.0 mi Calm Calm - N/A   Clear
1:35 PM 12.6 °F - 2.1 °F 63% 30.21 in 10.0 mi Calm Calm - N/A   Clear
1:55 PM 13.1 °F - 2.1 °F 62% 30.20 in 10.0 mi Calm Calm - N/A   Clear
2:15 PM 14.5 °F 8.8 °F 2.3 °F 58% 30.20 in 10.0 mi WSW 3.5 mph - N/A   Clear
2:35 PM 13.8 °F 8.0 °F 1.9 °F 59% 30.21 in 10.0 mi West 3.5 mph - N/A   Clear
2:55 PM 13.3 °F - 2.1 °F 61% 30.21 in 10.0 mi Calm Calm - N/A   Clear
3:15 PM 14.0 °F - 2.3 °F 60% 30.21 in 10.0 mi Calm Calm - N/A   Clear
3:35 PM 14.5 °F - 2.1 °F 58% 30.21 in 10.0 mi Calm Calm - N/A   Clear
3:55 PM 14.0 °F 8.2 °F 1.4 °F 57% 30.22 in 10.0 mi SW 3.5 mph - N/A   Clear
4:14 PM 13.6 °F 7.7 °F 1.2 °F 58% 30.23 in 10.0 mi WSW 3.5 mph - N/A   Clear
4:35 PM 13.1 °F 5.4 °F 0.5 °F 57% 30.23 in 10.0 mi WSW 4.6 mph - N/A   Clear
4:55 PM 12.7 °F - 0.3 °F 58% 30.23 in 10.0 mi Calm Calm - N/A   Clear
5:14 PM 12.0 °F 5.9 °F 0.5 °F 60% 30.25 in 10.0 mi WSW 3.5 mph - N/A   Clear
5:35 PM 11.3 °F 3.3 °F 0.5 °F 62% 30.25 in 10.0 mi WSW 4.6 mph - N/A   Clear
5:55 PM 9.5 °F 3.0 °F -0.6 °F 64% 30.26 in 10.0 mi West 3.5 mph - N/A   Clear
6:14 PM 9.1 °F - -0.0 °F 66% 30.26 in 10.0 mi Calm Calm - N/A   Clear
6:35 PM 8.4 °F - -0.6 °F 67% 30.26 in 10.0 mi Calm Calm - N/A   Clear
6:55 PM 7.0 °F - -1.1 °F 69% 30.27 in 10.0 mi Calm Calm - N/A   Clear
7:14 PM 6.3 °F - -1.3 °F 71% 30.27 in 10.0 mi Calm Calm - N/A   Clear
7:35 PM 6.6 °F - -0.6 °F 72% 30.27 in 10.0 mi Calm Calm - N/A   Scattered Clouds
7:54 PM 5.9 °F - -1.3 °F 72% 30.27 in 10.0 mi Calm Calm - N/A   Scattered Clouds
8:15 PM 5.5 °F - -1.5 °F 73% 30.28 in 10.0 mi Calm Calm - N/A   Scattered Clouds
8:35 PM 5.9 °F - -1.3 °F 72% 30.28 in 10.0 mi Calm Calm - N/A   Scattered Clouds
8:54 PM 4.5 °F - -2.4 °F 73% 30.28 in 10.0 mi Calm Calm - N/A   Clear
9:15 PM 3.0 °F - -3.5 °F 74% 30.28 in 10.0 mi Calm Calm - N/A   Clear
9:35 PM 3.6 °F - -2.6 °F 76% 30.28 in 10.0 mi Calm Calm - N/A   Clear
9:55 PM 1.9 °F - -3.5 °F 78% 30.29 in 10.0 mi Calm Calm - N/A   Scattered Clouds
10:15 PM 3.2 °F - -3.3 °F 74% 30.31 in 10.0 mi Calm Calm - N/A   Scattered Clouds
10:34 PM 2.7 °F -4.8 °F -3.3 °F 76% 30.33 in 10.0 mi West 3.5 mph - N/A   Scattered Clouds
10:55 PM 2.7 °F -4.8 °F -2.9 °F 78% 30.33 in 10.0 mi West 3.5 mph - N/A   Scattered Clouds
11:14 PM 2.3 °F - -3.5 °F 77% 30.34 in 10.0 mi Calm Calm - N/A   Scattered Clouds
11:35 PM 1.6 °F - -4.4 °F 76% 30.34 in 10.0 mi Calm Calm - N/A   Mostly Cloudy
11:55 PM -0.4 °F - -5.8 °F 78% 30.35 in 10.0 mi Calm Calm - N/A   Mostly Cloudy